OL Gymnasium Kirchenfeld 2022Di. 07.06.2022 20:33
Ergebniserzeugt von OE2010 © Stephan Krämer SportSoftware 2017

 
Herren (70)4.0 km 85 Hm13 P
PlLäufer/in 1Läufer/in 2Läufer/in 3KlassetempsDiff.
1Leon StraussSchmassmann Sorin   M25a40:160:00
2Michael WagnerJosty Marc   W25d40:46+0:30
3Fritz Denoth      LP41:47+1:31
4Fabian SchmidFankhauser Linus   M25c42:26+2:10
5Jorik WengerBieberstein MatteoVelikovic NikolajG25f42:55+2:39
6Malik NiederhauserMeister Dominik   M25c43:31+3:15
7Andreas WehseWeigl Simon   G25c44:40+4:24
8Timo LeupinFederer Gian   M25c44:58+4:42
9Amitai KlopshtokSchäfer Tilman   G25g45:23+5:07
10Joel NeftelRota Aziz   M25a45:48+5:32
11Thomas WilmsHussain Butt Ismael   W25c45:50+5:34
12Leif SchuppliScognamiglio Gabriel   M25a46:16+6:00
13Niilo CaboussatSommer Melwin   W25b46:21+6:05
14Luis AufschlägerFrick Moritz   M25e46:29+6:13
15Carlo SantschiCafaro Noah   W25d46:37+6:21
16Luc RothBoschetti Sereno   G25g46:41+6:25
17Théo SauvainKöppel Ben   M25b47:51+7:35
18Lukas BeeliStuder Christian   M25c47:57+7:41
19Leonardo RiordanFederer Flurin   W25a49:04+8:48
20Alejandro ValdivieazoFudalej Marek   G25a49:07+8:51
21Manuel LucasGraf Jon   G25a49:35+9:19
22Lukas RuofRohrbach MaximeEbinger MarioW25b50:06+9:50
23Loris JaegléBurger Leonard   W25b50:59+10:43
24Rufus SpyraStalder FabioTschirren LuisM25c51:03+10:47
25Nils BrittStuber Niklas   M25e51:23+11:07
26Tim JungeblodtSchenk Marino   W25c51:31+11:15
27Evan GäumannCodoni Tiziano   G25c51:39+11:23
28Elias BertschHummel Timo   G25f52:13+11:57
29Elia BühlmannScheidegger Zachary   W25c53:54+13:38
30Delmar RubeliFlücker YannSchwengler AnnaG25f55:12+14:56
31Nathan CzuczorWeaver ChainnRaza ArtinG25g55:14+14:58
32Adam BalsigerStoll Samuel   M25b56:05+15:49
33Leo QuistWehse Stefan   M25e56:35+16:19
34Nils BalmerRosado Banez José   M25e57:02+16:46
35Luis Scholervon Mühlenen Wim   G25c1:02:50+22:34
36Niklas BreiterDuc Jaro   W25d1:03:10+22:54
37Eric HalterStampfli Lev   W25b1:03:40+23:24
38Jesse LuMeles JossyAmarjargal GaridM25a1:04:09+23:53
39Aaron OgiVatter Severin   W25c1:04:19+24:03
40Bastian CrépinEggimann Leo   M25d1:04:57+24:41
41Bruno SchefussNiederhauser Jay   W25c1:07:01+26:45
42Cedric JenniKünzler Janusz   M25e1:08:22+28:06
43Maximilian WeckerMitrakovic Nikola   W25a1:08:35+28:19
44Said KhalefChiotelis Theologos   M25a1:14:07+33:51
45Valerio FerraroWiedmer Tobias   W25c1:15:20+35:04
46Nicolas EmchTaouil Saad   G25c1:16:59+36:43
47Deniz KaratekeKjaer Arvizu Matias   W25c1:17:24+37:08
48Tibet MuzslaiSchwengeler FrédéricDeveaux NoelG25a1:19:25+39:09
49Finn SchweryVilliger Aaron   M25e1:25:15+44:59
50Paul MillauerLeoni Vittorio   G25g1:25:48+45:32
51Gian-Luca WaiblKrähenbühl Rafael   W25d1:27:24+47:08
52Raphael StämpfliGyr Claudio   W25b1:27:41+47:25
53Lisart KryeziuRaissi Omar   G25g1:30:37+50:21
54Lukas GurzelerStöckli Sara   M25d1:35:58+55:42
55Ornella ManzoniHofer Lena   G25b1:36:08+55:52
56Fedor AbalakovWidmer Timothy   W25a1:36:33+56:17
57Julian Schärer GonzalezMeyer Sean   M25d1:38:53+58:37
58Alex PlüssVonlanthen Noam   W25b1:39:42+59:26
59Yugeswaran SaseekaranPazos Ismael   G25f1:43:08+1:02:52
60Simon MörkerSathiananthan Mithul   G25c1:46:58+1:06:42
61Thanushan RaviGysi TimGagan VanshM25a1:57:01+1:16:45
 
Max Billeter   M25eFehlst
Nestor BorterScherler Theodor   M25aFehlst
Manuel KunzTheiler Noel   G25cFehlst
Luis FlurySchweizer Simon   M25aFehlst
Timon StalderValgimigli Riccardo   M25cFehlst
Avanesh ParamashamyBuchmüller Miro   G25aFehlst
Léo GrafBoldt Finn   W25aFehlst
Alexi RellstabVökt Ronja   G25gAufg
Moritz KuhnChristener Roy   W25dAufg
 
 
 
Damen (89)3.6 km 65 Hm11 P
PlLäufer/in 1Läufer/in 2Läufer/in 3KlassetempsDiff.
1Marie WörnerSchümperli LéanneSteinmann SophiaW25c33:410:00
2Alia GuggisbergRöthlisberger Lea   G25e34:56+1:15
3Merisa JahajLeemann Lilli   G25c35:12+1:31
4Luana FriedliDewald Anouk   G25b35:17+1:36
5Cara HoferNeuhaus Kaya   G25e36:29+2:48
6Leyla FeyVöllmin Florinne   M25d37:07+3:26
7Epona LankerZbinden AnnaG25e37:45+4:04
8Sofia WederKotchetov Anna   M25d38:15+4:34
9Muriel SterchiKünzler LiviaLeiser AnnaG25c38:16+4:35
10Aline KientschInderbitzi Lu   W25b39:40+5:59
11Liv GauerBurkhalter Anna   W25b40:00+6:19
12Leonie ZauggBärtschi Louise   G25c40:42+7:01
13Jelena BlagojevicWood Fiona W25d40:52+7:11
14Lucie StämpfliLüscher NoemiG25a41:07+7:26
15Valeria KazarianLädrach JulieW25b41:16+7:35
16Sophie MesserliHess LiaLauber ClaraM25a41:49+8:08
17Mina CollinWüthrich Luana   M25b42:04+8:23
18Uma BaumannMezzera Vera   W25c42:19+8:38
19Anna DaudelBoldt Fifine   M25d42:50+9:09
20Jennifer GafnerHaldi AmélieWelter LivM25e43:33+9:52
21Michela ImhofPerrez Johanna   G25c43:37+9:56
22Chiara D'AmelioWerren Lia   M25d44:29+10:48
23Lisa HügliRohrbach ElinZheng AngelaG25f46:35+12:54
24Sophie FachruddinKaya Selen   M25c47:18+13:37
25Hannah SpöriScherr FionaW25a47:54+14:13
26Hana DevaHeilinger PadronDayanara LeaW25d48:04+14:23
27Tabea HugJost Anouk   G25b48:20+14:39
28Michelle OetikerBurri Michelle   W25a48:24+14:43
29Laoda DémoulinsLengacher XéniaBoksberger DominiqueM25b48:43+15:02
30Julia SalmScheiben Salina   G25b48:57+15:16
31Viviane VonlanthenLehmann CiaraGhelew EmilieG25f49:24+15:43
32Amelie MüllerWeber Lea   W25a50:40+16:59
33Miria MoserReber Anna   W25a51:01+17:20
34Emilia PohlenzCamenzind Matilda   W25a51:52+18:11
35Emma BörnerSlongo Josephine   G25f51:59+18:18
36Victoria Telleria VileraKraska Julia   W25c52:05+18:24
37Lisa LozanoLutz Alina   G25e52:27+18:46
38Eva WengertRacaj Elisa   M25e52:44+19:03
39Leena Bravo MedinaHofmann Felicitas   G25e52:58+19:17
40Hanna EychmüllerGuler Luisa   G25e53:05+19:24
41Salma PerigoGoetschel Ayala   G25a53:51+20:10
42Zoé ItenJost Laura   G25c53:52+20:11
43Jaël MathysFröscher LianaIschi AvaG25g54:08+20:27
44Ilona HapeyenkaGraber Lia   M25b54:37+20:56
45Nina AepliStreit Julia   M25d56:49+23:08
46Noémie RothMüller Julia   W25b58:06+24:25
47Isabella GottierRauh Lena   G25b58:37+24:56
48Pauline JominiSchläppi Lou   G25c58:45+25:04
49Liv SchaferZürcher Bianca   M25d59:33+25:52
50Anna KläyGlauser Mia   G25e59:44+26:03
51Bérangère SuppaKunz Lavinia   M25b1:00:13+26:32
52Viviane AuerScheidegger Amélie   M25b1:01:11+27:30
52Danielle GnägiRitter Rebecca   G25e1:01:11+27:30
54Anouk SchabertInderbinen Melanie   W25a1:01:21+27:40
55Rocio GarciaManoelli Lara   G25c1:01:40+27:59
56Lea VegliaHowald Sara   G25c1:02:40+28:59
57Vera KesslerDowse Juliette   G25f1:02:56+29:15
58Jana VogtDerlet Emma   G25c1:05:14+31:33
59Gioia LargiadèrMack Maj   M25d1:06:01+32:20
60Jael JenniGraf EmilieBiljanovic TamaraG25b1:07:22+33:41
61Hawin TuncYaylali Selin   G25b1:07:41+34:00
62Anouk VogelYan Zhan Susanna   G25c1:08:04+34:23
63Naomi NevianGautschi Fiona   G25c1:08:06+34:25
64Meline StäheliUehlinger Carole   W25d1:08:49+35:08
65Helena KohlerNistorescu Alexandra   M25c1:09:31+35:50
66Lori KozicJenni Finja   M25e1:13:04+39:23
67Natalia KurkWalder Luana   G25a1:14:02+40:21
68Jeanne LocherTothova Jasmina   G25g1:14:51+41:10
69Michelle VogelContino Eleonora   G25c1:15:21+41:40
70Theda PohlenzStüber Sophia   G25e1:15:28+41:47
71Estelle AmstutzDias Pamela   G25g1:16:13+42:32
72Lucy HarnischbergCartus MagdalenaLäderach HannahG25c1:18:44+45:03
73Bach LuisaRotter Mia   G25a1:20:21+46:40
74Noemi AghareseBürge Jamina   G25e1:30:35+56:54
75Nina GiourgasAmaeva Aleksandra   G25a1:40:26+1:06:45
76Kiruththiga VigneswaranHannemann Deborah   G25g1:45:07+1:11:26
77Anja RindisbacherKühn Klara   G25g1:48:21+1:14:40
 
Céline HoferSchwery OlgaBüchi LeanneG25fFehlst
Manon JenniRoggo Amélie   M25bFehlst
Nora ImoberdorfVoller Elisabeth   M25dFehlst
Joy UkamMüller Lilia   G25aFehlst
Uma LivingstonWensink Franca   G25eFehlst
Lia HessMeyer Timea   M25bFehlst
Gladys DuPasquierSchmid Delia   G25bFehlst
Joëlle HugueninKearns Zoe   M25dFehlst
Joana StuderStüdeli Amalia   G25bFehlst
Serafina MüllerThaci Klea   G25bFehlst
Alina ReberAeberhard Lara   M25bFehlst
Valentina LantzFeingold Ariana   G25cFehlst